Regional Weather Roundup
Issued by NWS

Home | Current Version | Previous Version | Text Only | Print | Product List | Glossary On
Versions: 1 2 3 4 5 6 7 8 9 10 11 12 13 14 15 16 17 18 19 20 21 22 23 24 25 26 27 28 29 30 31 32 33 34 35 36 37 38 39 40 41 42 43 44 45 46 47 48 49 50
000
ASCA42 TJSJ 180511
RWRPR
PUERTO RICO/U.S. VIRGIN ISLANDS HOURLY WEATHER ROUNDUP
NATIONAL WEATHER SERVICE SAN JUAN PR
100 AM AST FRI APR 18 2014

PRZ001-004-180600-
PUERTO RICO

CITY           SKY/WX    TMP DP  RH WIND       PRES   REMARKS
SAN JUAN LMM   MOCLDY    77  72  83 E7        30.03F
PONCE          PTCLDY    73  70  88 NE5       29.98
AGUADILLA      PTCLDY    75  68  78 E12       30.04
CEIBA          MOCLDY    79  72  78 E9        30.05F
$$

PRZ006-007-180600-
U.S. VIRGIN ISLANDS

CITY           SKY/WX    TMP DP  RH WIND       PRES   REMARKS
CHARLOTTE AMA  PTCLDY    77  72  83 E12       30.03F
CHRISTIANSTED  CLOUDY    75  70  83 E10       30.03F
$$

HOURLY WEATHER ROUNDUP FOR THE NEWS MEDIA

CITY           SKY/WX    TMP DP  RH WIND       PRES   REMARKS
MIAMI          MOCLDY    77  71  82 E9        30.08F
ORLANDO        CLOUDY    71  65  81 E15       30.15F
NEW YORK       PTCLDY    38  27  64 NE7       30.62S WCI  33
NEWARK         PTCLDY    40  26  57 E8        30.61S WCI  34
CHICAGO        CLOUDY    49  37  63 E6        30.24S
HARTFORD       CLEAR     32  26  78 N5        30.61F WCI  27
BOSTON         PTCLDY    35  27  72 NE12      30.65F WCI  27
DALLAS         LGT RAIN  58  53  84 NE3       30.21R
PHILADELPHIA   CLOUDY    40  28  62 E9        30.63R WCI  34



USA.gov is the U.S. government's official web portal to all federal, state and local government web resources and services.